MB7UEL Weather Reports


time (UTC)temp
C
wind
direction
speed
KPH
gust
KPH
rain 1hr
cm
rain 24hr
cm
rain mn
cm
humidity
%
barometer
mb
20260506070505 6 52 14.5 20.9 0.00 0.00 0.00 1019.0
20260506060505 6 38 16.1 22.5 0.00 0.00 0.00 1019.0
20260506050505 6 27 16.1 22.5 0.00 0.00 0.00 1019.0
20260506043506 6 26 11.3 17.7 0.00 0.00 0.00 1019.0
20260506040506 6 26 11.3 17.7 0.00 0.00 0.00 1019.0
20260506033506 7 49 8.0 14.5 0.00 0.00 0.00 1019.0
20260506030506 7 49 8.0 14.5 0.00 0.00 0.00 1019.0
20260506023506 7 69 11.3 16.1 0.00 0.00 0.00 1019.0
20260506020506 7 69 11.3 16.1 0.00 0.00 0.00 1019.0
20260506013505 7 72 11.3 17.7 0.00 0.00 0.00 1019.0
20260506010506 7 72 11.3 17.7 0.00 0.00 0.00 1019.0
20260506003505 7 73 12.9 19.3 0.00 0.00 0.00 1020.0
20260506000505 7 62 14.5 20.9 0.00 0.00 0.00 1020.0
20260505233505 7 69 17.7 24.1 0.00 0.00 0.00 1020.0
20260505230505 7 69 17.7 24.1 0.00 0.00 0.00 1020.0
20260505223505 7 69 20.9 29.0 0.00 0.00 0.00 1020.0
20260505220505 7 69 20.9 29.0 0.00 0.00 0.00 1020.0
20260505213506 7 76 20.9 27.4 0.00 0.00 0.00 1020.0
20260505210505 7 76 20.9 27.4 0.00 0.00 0.00 1020.0
20260505203506 7 73 19.3 27.4 0.00 0.00 0.00 1020.0
20260505200506 7 73 19.3 27.4 0.00 0.00 0.00 1020.0
20260505193506 7 71 19.3 25.7 0.00 0.00 0.00 1020.0
20260505190506 7 71 19.3 25.7 0.00 0.00 0.00 1020.0
20260505183506 7 69 22.5 29.0 0.00 0.00 0.00 1019.0
20260505180506 7 67 24.1 32.2 0.00 0.00 0.00 1019.0
20260505173506 7 64 25.7 33.8 0.00 0.00 0.00 1019.0
20260505170506 7 64 25.7 33.8 0.00 0.00 0.00 1019.0
20260505163505 7 60 25.7 33.8 0.00 0.00 0.00 1019.0
20260505160505 7 60 25.7 33.8 0.00 0.00 0.00 1019.0
20260505150505 7 55 25.7 35.4 0.00 0.00 0.00 1019.0
20260505140505 7 53 25.7 35.4 0.00 0.00 0.00 1019.0
20260505123506 8 35 27.4 35.4 0.00 0.00 0.00 1018.0
20260505120506 7 36 27.4 37.0 0.00 0.00 0.00 1019.0
20260505113506 7 32 29.0 37.0 0.00 0.00 0.00 1018.0
20260505110506 7 32 29.0 37.0 0.00 0.00 0.00 1018.0
20260505100506 8 43 22.5 30.6 0.00 0.00 0.00 1018.0
20260505093505 8 41 4.8 8.0 0.00 0.00 0.00 1017.0
20260505090505 8 41 4.8 8.0 0.00 0.00 0.00 1017.0
20260505083505 8 346 1.6 3.2 0.00 0.00 0.00 1017.0
20260505080505 8 346 1.6 3.2 0.00 0.00 0.00 1017.0
20260505073505 8 325 6.4 9.7 0.00 0.00 0.00 1016.0